User: anonymous   Login
Location: Unspecified
(0.0000°N, 0.0000°E)
Time: 16:39:51
(UTC+00:00)
Language:

Milstar DFS 1 - Orbit

View from above orbital plane
View from above orbital plane
View from above satellite
View from above satellite

Ground track
Ground track

The orbit data is extracted from the following two-line orbital elements,

1 22988U 94009A   17084.78096835 0.00000000  00000-0  00000-0 0    00
2 22988  12.0506  65.7643 0002000 281.3074  78.6369  1.00270000    02
Epoch (UTC): 25 March 2017 18:44:35
Eccentricity: 0.0002000
inclination: 12.0506°
perigee height: 35778 km
apogee height: 35795 km
right ascension of ascending node: 65.7643°
argument of perigee: 281.3074°
revolutions per day: 1.00270000
mean anomaly at epoch: 78.6369°
orbit number at epoch: 0

The dashed part of the orbit path shows where the satellite is in the earth's shadow,  

DLR